Regional Weather Roundup
Issued by NWS

Home | Current Version | Previous Version | Graphics & Text | Print | Product List | Glossary On
Versions: 1 2 3 4 5 6 7 8 9 10 11 12 13 14 15 16 17 18 19 20 21 22 23 24 25 26 27 28 29 30 31 32 33 34 35 36 37 38 39 40 41 42 43 44 45 46 47 48 49 50
000
ASUS43 KFSD 230702
RWRSD

WEATHER ROUNDUP FOR SOUTH DAKOTA
NATIONAL WEATHER SERVICE SIOUX FALLS SD
100 AM CST SUN NOV 23 2014

NOTE: "FAIR" INDICATES FEW OR NO CLOUDS BELOW 12,000 FEET WITH NO
SIGNIFICANT WEATHER AND/OR OBSTRUCTIONS TO VISIBILITY.


SDZ001>005-009-010-012>017-230800-
NORTHWEST AND NORTH CENTRAL SOUTH DAKOTA

CITY           SKY/WX    TMP DP  RH WIND       PRES   REMARKS
BUFFALO          N/A     39  23  52 W21       29.43R
FAITH            N/A     40  34  79 NW16G23   29.49R
MOBRIDGE       LGT RAIN  41  37  86 NW8       29.41R
$$

SDZ012>016-024>037-041>051-057-063-072>074-230800-
SOUTHWEST AND SOUTH CENTRAL SOUTH DAKOTA

CITY           SKY/WX    TMP DP  RH WIND       PRES   REMARKS
RAPID CTY ARPT MOCLDY    40  27  59 N16       29.53R
PIERRE         CLOUDY    37  32  82 NW14      29.44R
CUSTER         CLOUDY    33  17  51 VRB7      29.53R WCI  27
ELLSWORTH AFB  CLOUDY    39  28  62 NW20      29.51R
PHILIP         CLOUDY    42  34  73 NW18G26   29.50R
PINE RIDGE     CLOUDY    40  33  76 N8        29.53R
WINNER         FAIR      46  36  68 SW7       29.42R
$$

SDZ004>011-016>023-039-040-230800-
NORTHEAST SOUTH DAKOTA

CITY           SKY/WX    TMP DP  RH WIND       PRES   REMARKS
ABERDEEN       CLOUDY    35  31  85 SW8       29.42R WCI  29
WATERTOWN      CLOUDY    36  32  85 SW9       29.42R
SISSETON         N/A     37  31  78 CALM      29.37R
$$

SDZ017-020-022-023-036>040-048>070-230800-
SOUTHEAST SOUTH DAKOTA

CITY           SKY/WX    TMP DP  RH WIND       PRES   REMARKS
SIOUX FALLS    CLOUDY    42  39  89 S8        29.44F
HURON          CLOUDY    37  32  82 S3        29.42F
MITCHELL       CLOUDY    40  33  76 SE7       29.42F
YANKTON        CLOUDY    46  37  71 S10       29.44F
$$

ABBREVIATIONS USED IN REMARKS
   TC - TEMPERATURE IN CELSIUS
  WCI - WIND CHILL INDEX
   HX - HEAT INDEX
  VSB - VISIBILITY



USA.gov is the U.S. government's official web portal to all federal, state and local government web resources and services.